Year,Month,Day,Hour,Minute,Value (Times are PST for temperature in C)
2008,07,16,00,00,13.00
2008,07,16,00,01,13.00
2008,07,16,00,02,12.90
2008,07,16,00,03,12.90
2008,07,16,00,04,12.90
2008,07,16,00,05,12.80
2008,07,16,00,06,12.80
2008,07,16,00,07,12.80
2008,07,16,00,08,12.80
2008,07,16,00,09,12.80
2008,07,16,00,10,12.80
2008,07,16,00,11,12.80
2008,07,16,00,12,12.80
2008,07,16,00,13,12.70
2008,07,16,00,14,12.70
2008,07,16,00,15,12.70
2008,07,16,00,16,12.70
2008,07,16,00,17,12.60
2008,07,16,00,18,12.60
2008,07,16,00,19,12.60
2008,07,16,00,20,12.60
2008,07,16,00,21,12.60
2008,07,16,00,22,12.60
2008,07,16,00,23,12.60
2008,07,16,00,24,12.60
2008,07,16,00,25,12.60
2008,07,16,00,26,12.60
2008,07,16,00,27,12.50
2008,07,16,00,28,12.50
2008,07,16,00,29,12.50
2008,07,16,00,30,12.50
2008,07,16,00,31,12.40
2008,07,16,00,32,12.40
2008,07,16,00,33,12.40
2008,07,16,00,34,12.40
2008,07,16,00,35,12.30
2008,07,16,00,36,12.30
2008,07,16,00,37,12.30
2008,07,16,00,38,12.30
2008,07,16,00,39,12.30
2008,07,16,00,40,12.30
2008,07,16,00,41,12.30
2008,07,16,00,42,12.30
2008,07,16,00,43,12.30
2008,07,16,00,44,12.30
2008,07,16,00,45,12.30
2008,07,16,00,46,12.30
2008,07,16,00,47,12.30
2008,07,16,00,48,12.30
2008,07,16,00,49,12.30
2008,07,16,00,50,12.30
2008,07,16,00,51,12.30
2008,07,16,00,52,12.30
2008,07,16,00,53,12.30
2008,07,16,00,54,12.30
2008,07,16,00,55,12.30
2008,07,16,00,56,12.30
2008,07,16,00,57,12.30
2008,07,16,00,58,12.30
2008,07,16,00,59,12.30
2008,07,16,01,00,12.20
2008,07,16,01,01,12.20
2008,07,16,01,02,12.20
2008,07,16,01,03,12.10
2008,07,16,01,04,12.10
2008,07,16,01,05,12.00
2008,07,16,01,06,12.00
2008,07,16,01,07,11.90
2008,07,16,01,08,11.90
2008,07,16,01,09,11.90
2008,07,16,01,10,11.90
2008,07,16,01,11,11.80
2008,07,16,01,12,11.80
2008,07,16,01,13,11.80
2008,07,16,01,14,11.80
2008,07,16,01,15,11.80
2008,07,16,01,16,11.80
2008,07,16,01,17,11.80
2008,07,16,01,18,11.80
2008,07,16,01,19,11.80
2008,07,16,01,20,11.80
2008,07,16,01,21,11.80
2008,07,16,01,22,11.80
2008,07,16,01,23,11.80
2008,07,16,01,24,11.80
2008,07,16,01,25,11.80
2008,07,16,01,26,11.80
2008,07,16,01,27,11.80
2008,07,16,01,28,11.80
2008,07,16,01,29,11.80
2008,07,16,01,30,11.90
2008,07,16,01,31,11.90
2008,07,16,01,32,11.90
2008,07,16,01,33,11.90
2008,07,16,01,34,11.90
2008,07,16,01,35,11.90
2008,07,16,01,36,12.00
2008,07,16,01,37,12.00
2008,07,16,01,38,12.00
2008,07,16,01,39,12.00
2008,07,16,01,40,12.00
2008,07,16,01,41,12.00
2008,07,16,01,42,12.00
2008,07,16,01,43,12.00
2008,07,16,01,44,12.00
2008,07,16,01,45,12.00
2008,07,16,01,46,12.10
2008,07,16,01,47,12.10
2008,07,16,01,48,12.10
2008,07,16,01,49,12.10
2008,07,16,01,50,12.10
2008,07,16,01,51,12.00
2008,07,16,01,52,12.00
2008,07,16,01,53,12.00
2008,07,16,01,54,12.00
2008,07,16,01,55,12.00
2008,07,16,01,56,12.00
2008,07,16,01,57,12.00
2008,07,16,01,58,12.00
2008,07,16,01,59,11.90
2008,07,16,02,00,11.90
2008,07,16,02,01,11.90
2008,07,16,02,02,11.90
2008,07,16,02,03,11.90
2008,07,16,02,04,11.90
2008,07,16,02,05,11.90
2008,07,16,02,06,11.90
2008,07,16,02,07,11.90
2008,07,16,02,08,11.90
2008,07,16,02,09,11.80
2008,07,16,02,10,11.80
2008,07,16,02,11,11.80
2008,07,16,02,12,11.80
2008,07,16,02,13,11.80
2008,07,16,02,14,11.80
2008,07,16,02,15,11.80
2008,07,16,02,16,11.80
2008,07,16,02,17,11.80
2008,07,16,02,18,11.80
2008,07,16,02,19,11.80
2008,07,16,02,20,11.80
2008,07,16,02,21,11.80
2008,07,16,02,22,11.80
2008,07,16,02,23,11.80
2008,07,16,02,24,11.80
2008,07,16,02,25,11.80
2008,07,16,02,26,11.80
2008,07,16,02,27,11.70
2008,07,16,02,28,11.70
2008,07,16,02,29,11.70
2008,07,16,02,30,11.70
2008,07,16,02,31,11.70
2008,07,16,02,32,11.70
2008,07,16,02,33,11.70
2008,07,16,02,34,11.70
2008,07,16,02,35,11.60
2008,07,16,02,36,11.60
2008,07,16,02,37,11.60
2008,07,16,02,38,11.60
2008,07,16,02,39,11.60
2008,07,16,02,40,11.60
2008,07,16,02,41,11.60
2008,07,16,02,42,11.60
2008,07,16,02,43,11.60
2008,07,16,02,44,11.60
2008,07,16,02,45,11.50
2008,07,16,02,46,11.40
2008,07,16,02,47,11.40
2008,07,16,02,48,11.40
2008,07,16,02,49,11.40
2008,07,16,02,50,11.40
2008,07,16,02,51,11.40
2008,07,16,02,52,11.40
2008,07,16,02,53,11.40
2008,07,16,02,54,11.40
2008,07,16,02,55,11.40
2008,07,16,02,56,11.40
2008,07,16,02,57,11.40
2008,07,16,02,58,11.40
2008,07,16,02,59,11.40
2008,07,16,03,00,11.40
2008,07,16,03,01,11.40
2008,07,16,03,02,11.40
2008,07,16,03,03,11.40
2008,07,16,03,04,11.40
2008,07,16,03,05,11.40
2008,07,16,03,06,11.40
2008,07,16,03,07,11.40
2008,07,16,03,08,11.40
2008,07,16,03,09,11.40
2008,07,16,03,10,11.40
2008,07,16,03,11,11.40
2008,07,16,03,12,11.40
2008,07,16,03,13,11.40
2008,07,16,03,14,11.40
2008,07,16,03,15,11.40
2008,07,16,03,16,11.40
2008,07,16,03,17,11.40
2008,07,16,03,18,11.40
2008,07,16,03,19,11.40
2008,07,16,03,20,11.40
2008,07,16,03,21,11.40
2008,07,16,03,22,11.40
2008,07,16,03,23,11.40
2008,07,16,03,24,11.40
2008,07,16,03,25,11.40
2008,07,16,03,26,11.40
2008,07,16,03,27,11.40
2008,07,16,03,28,11.40
2008,07,16,03,29,11.40
2008,07,16,03,30,11.40
2008,07,16,03,31,11.40
2008,07,16,03,32,11.40
2008,07,16,03,33,11.40
2008,07,16,03,34,11.40
2008,07,16,03,35,11.40
2008,07,16,03,36,11.40
2008,07,16,03,37,11.40
2008,07,16,03,38,11.40
2008,07,16,03,39,11.40
2008,07,16,03,40,11.40
2008,07,16,03,41,11.40
2008,07,16,03,42,11.40
2008,07,16,03,43,11.40
2008,07,16,03,44,11.40
2008,07,16,03,45,11.40
2008,07,16,03,46,11.40
2008,07,16,03,47,11.40
2008,07,16,03,48,11.40
2008,07,16,03,49,11.30
2008,07,16,03,50,11.30
2008,07,16,03,51,11.30
2008,07,16,03,52,11.30
2008,07,16,03,53,11.20
2008,07,16,03,54,11.20
2008,07,16,03,55,11.20
2008,07,16,03,56,11.20
2008,07,16,03,57,11.20
2008,07,16,03,58,11.20
2008,07,16,03,59,11.10
2008,07,16,04,00,11.10
2008,07,16,04,01,11.10
2008,07,16,04,02,11.10
2008,07,16,04,03,11.10
2008,07,16,04,04,11.10
2008,07,16,04,05,11.10
2008,07,16,04,06,11.10
2008,07,16,04,07,11.10
2008,07,16,04,08,11.10
2008,07,16,04,09,11.10
2008,07,16,04,10,11.10
2008,07,16,04,11,11.10
2008,07,16,04,12,11.10
2008,07,16,04,13,11.10
2008,07,16,04,14,11.10
2008,07,16,04,15,11.10
2008,07,16,04,16,11.10
2008,07,16,04,17,11.10
2008,07,16,04,18,11.10
2008,07,16,04,19,11.10
2008,07,16,04,20,11.10
2008,07,16,04,21,11.10
2008,07,16,04,22,11.10
2008,07,16,04,23,11.10
2008,07,16,04,24,11.10
2008,07,16,04,25,11.10
2008,07,16,04,26,11.10
2008,07,16,04,27,10.90
2008,07,16,04,28,10.90
2008,07,16,04,29,10.90
2008,07,16,04,30,10.90
2008,07,16,04,31,10.90
2008,07,16,04,32,10.90
2008,07,16,04,33,10.90
2008,07,16,04,34,10.90
2008,07,16,04,35,10.90
2008,07,16,04,36,10.90
2008,07,16,04,37,10.90
2008,07,16,04,38,10.90
2008,07,16,04,39,10.90
2008,07,16,04,40,10.80
2008,07,16,04,41,10.80
2008,07,16,04,42,10.80
2008,07,16,04,43,10.80
2008,07,16,04,44,10.80
2008,07,16,04,45,10.70
2008,07,16,04,46,10.70
2008,07,16,04,47,10.70
2008,07,16,04,48,10.70
2008,07,16,04,49,10.70
2008,07,16,04,50,10.60
2008,07,16,04,51,10.60
2008,07,16,04,52,10.60
2008,07,16,04,53,10.60
2008,07,16,04,54,10.60
2008,07,16,04,55,10.60
2008,07,16,04,56,10.50
2008,07,16,04,57,10.40
2008,07,16,04,58,10.40
2008,07,16,04,59,10.40
2008,07,16,05,00,10.40
2008,07,16,05,01,10.40
2008,07,16,05,02,10.40
2008,07,16,05,03,10.40
2008,07,16,05,04,10.30
2008,07,16,05,05,10.30
2008,07,16,05,06,10.30
2008,07,16,05,07,10.30
2008,07,16,05,08,10.30
2008,07,16,05,09,10.30
2008,07,16,05,10,10.30
2008,07,16,05,11,10.30
2008,07,16,05,12,10.30
2008,07,16,05,13,10.30
2008,07,16,05,14,10.30
2008,07,16,05,15,10.30
2008,07,16,05,16,10.30
2008,07,16,05,17,10.20
2008,07,16,05,18,10.20
2008,07,16,05,19,10.20
2008,07,16,05,20,10.20
2008,07,16,05,21,10.20
2008,07,16,05,22,10.20
2008,07,16,05,23,10.20
2008,07,16,05,24,10.20
2008,07,16,05,25,10.20
2008,07,16,05,26,10.20
2008,07,16,05,27,10.20
2008,07,16,05,28,10.10
2008,07,16,05,29,10.10
2008,07,16,05,30,10.10
2008,07,16,05,31,10.10
2008,07,16,05,32,10.10
2008,07,16,05,33,10.10
2008,07,16,05,34,10.10
2008,07,16,05,35,10.10
2008,07,16,05,36,10.10
2008,07,16,05,37,10.10
2008,07,16,05,38,10.10
2008,07,16,05,39,10.10
2008,07,16,05,40,10.10
2008,07,16,05,41,10.10
2008,07,16,05,42,10.10
2008,07,16,05,43,10.20
2008,07,16,05,44,10.20
2008,07,16,05,45,10.20
2008,07,16,05,46,10.20
2008,07,16,05,47,10.20
2008,07,16,05,48,10.20
2008,07,16,05,49,10.20
2008,07,16,05,50,10.20
2008,07,16,05,51,10.20
2008,07,16,05,52,10.20
2008,07,16,05,53,10.20
2008,07,16,05,54,10.20
2008,07,16,05,55,10.20
2008,07,16,05,56,10.20
2008,07,16,05,57,10.20
2008,07,16,05,58,10.20
2008,07,16,05,59,10.20
2008,07,16,06,00,10.20
2008,07,16,06,01,10.20
2008,07,16,06,02,10.20
2008,07,16,06,03,10.30
2008,07,16,06,04,10.30
2008,07,16,06,05,10.30
2008,07,16,06,06,10.30
2008,07,16,06,07,10.40
2008,07,16,06,08,10.40
2008,07,16,06,09,10.40
2008,07,16,06,10,10.50
2008,07,16,06,11,10.60
2008,07,16,06,12,10.60
2008,07,16,06,13,10.60
2008,07,16,06,14,10.70
2008,07,16,06,15,10.70
2008,07,16,06,16,10.80
2008,07,16,06,17,10.80
2008,07,16,06,18,10.90
2008,07,16,06,19,10.90
2008,07,16,06,20,11.00
2008,07,16,06,21,11.10
2008,07,16,06,22,11.10
2008,07,16,06,23,11.20
2008,07,16,06,24,11.30
2008,07,16,06,25,11.40
2008,07,16,06,26,11.40
2008,07,16,06,27,11.50
2008,07,16,06,28,11.60
2008,07,16,06,29,11.60
2008,07,16,06,30,11.70
2008,07,16,06,31,11.70
2008,07,16,06,32,11.80
2008,07,16,06,33,11.80
2008,07,16,06,34,11.80
2008,07,16,06,35,11.80
2008,07,16,06,36,11.80
2008,07,16,06,37,11.90
2008,07,16,06,38,11.90
2008,07,16,06,39,11.90
2008,07,16,06,40,12.00
2008,07,16,06,41,12.00
2008,07,16,06,42,12.10
2008,07,16,06,43,12.10
2008,07,16,06,44,12.10
2008,07,16,06,45,12.20
2008,07,16,06,46,12.20
2008,07,16,06,47,12.20
2008,07,16,06,48,12.30
2008,07,16,06,49,12.30
2008,07,16,06,50,12.40
2008,07,16,06,51,12.50
2008,07,16,06,52,12.50
2008,07,16,06,53,12.60
2008,07,16,06,54,12.70
2008,07,16,06,55,12.80
2008,07,16,06,56,12.90
2008,07,16,06,57,13.00
2008,07,16,06,58,13.00
2008,07,16,06,59,13.10
2008,07,16,07,00,13.20
2008,07,16,07,01,13.20
2008,07,16,07,02,13.30
2008,07,16,07,03,13.30
2008,07,16,07,04,13.40
2008,07,16,07,05,13.40
2008,07,16,07,06,13.40
2008,07,16,07,07,13.50
2008,07,16,07,08,13.50
2008,07,16,07,09,13.60
2008,07,16,07,10,13.70
2008,07,16,07,11,13.80
2008,07,16,07,12,13.90
2008,07,16,07,13,14.00
2008,07,16,07,14,14.10
2008,07,16,07,15,14.20
2008,07,16,07,16,14.30
2008,07,16,07,17,14.30
2008,07,16,07,18,14.40
2008,07,16,07,19,14.50
2008,07,16,07,20,14.50
2008,07,16,07,21,14.60
2008,07,16,07,22,14.70
2008,07,16,07,23,14.70
2008,07,16,07,24,14.80
2008,07,16,07,25,14.80
2008,07,16,07,26,14.80
2008,07,16,07,27,14.80
2008,07,16,07,28,14.80
2008,07,16,07,29,14.80
2008,07,16,07,30,14.80
2008,07,16,07,31,14.80
2008,07,16,07,32,14.90
2008,07,16,07,33,14.90
2008,07,16,07,34,14.90
2008,07,16,07,35,15.00
2008,07,16,07,36,15.10
2008,07,16,07,37,15.10
2008,07,16,07,38,15.20
2008,07,16,07,39,15.30
2008,07,16,07,40,15.40
2008,07,16,07,41,15.50
2008,07,16,07,42,15.60
2008,07,16,07,43,15.60
2008,07,16,07,44,15.70
2008,07,16,07,45,15.80
2008,07,16,07,46,15.80
2008,07,16,07,47,15.80
2008,07,16,07,48,15.80
2008,07,16,07,49,15.90
2008,07,16,07,50,15.90
2008,07,16,07,51,16.00
2008,07,16,07,52,16.10
2008,07,16,07,53,16.10
2008,07,16,07,54,16.10
2008,07,16,07,55,16.10
2008,07,16,07,56,16.10
2008,07,16,07,57,16.10
2008,07,16,07,58,16.10
2008,07,16,07,59,16.10
2008,07,16,08,00,16.00
2008,07,16,08,01,15.80
2008,07,16,08,02,15.80
2008,07,16,08,03,15.70
2008,07,16,08,04,15.70
2008,07,16,08,05,15.60
2008,07,16,08,06,15.50
2008,07,16,08,07,15.50
2008,07,16,08,08,15.40
2008,07,16,08,09,15.30
2008,07,16,08,10,15.20
2008,07,16,08,11,15.10
2008,07,16,08,12,15.10
2008,07,16,08,13,15.10
2008,07,16,08,14,15.00
2008,07,16,08,15,14.90
2008,07,16,08,16,14.90
2008,07,16,08,17,14.90
2008,07,16,08,18,14.90
2008,07,16,08,19,15.00
2008,07,16,08,20,15.00
2008,07,16,08,21,14.90
2008,07,16,08,22,14.90
2008,07,16,08,23,14.80
2008,07,16,08,24,14.90
2008,07,16,08,25,14.90
2008,07,16,08,26,14.90
2008,07,16,08,27,14.80
2008,07,16,08,28,14.80
2008,07,16,08,29,14.90
2008,07,16,08,30,14.90
2008,07,16,08,31,15.00
2008,07,16,08,32,15.00
2008,07,16,08,33,15.00
2008,07,16,08,34,15.10
2008,07,16,08,35,15.10
2008,07,16,08,36,15.20
2008,07,16,08,37,15.20
2008,07,16,08,38,15.30
2008,07,16,08,39,15.30
2008,07,16,08,40,15.30
2008,07,16,08,41,15.30
2008,07,16,08,42,15.30
2008,07,16,08,43,15.30
2008,07,16,08,44,15.40
2008,07,16,08,45,15.40
2008,07,16,08,46,15.40
2008,07,16,08,47,15.40
2008,07,16,08,48,15.50
2008,07,16,08,49,15.50
2008,07,16,08,50,15.50
2008,07,16,08,51,15.50
2008,07,16,08,52,15.50
2008,07,16,08,53,15.50
2008,07,16,08,54,15.40
2008,07,16,08,55,15.40
2008,07,16,08,56,15.40
2008,07,16,08,57,15.40
2008,07,16,08,58,15.40
2008,07,16,08,59,15.40
2008,07,16,09,00,15.40
2008,07,16,09,01,15.40
2008,07,16,09,02,15.50
2008,07,16,09,03,15.50
2008,07,16,09,04,15.50
2008,07,16,09,05,15.50
2008,07,16,09,06,15.50
2008,07,16,09,07,15.50
2008,07,16,09,08,15.60
2008,07,16,09,09,15.60
2008,07,16,09,10,15.60
2008,07,16,09,11,15.70
2008,07,16,09,12,15.60
2008,07,16,09,13,15.60
2008,07,16,09,14,15.50
2008,07,16,09,15,15.50
2008,07,16,09,16,15.40
2008,07,16,09,17,15.50
2008,07,16,09,18,15.50
2008,07,16,09,19,15.60
2008,07,16,09,20,15.70
2008,07,16,09,21,15.80
2008,07,16,09,22,15.80
2008,07,16,09,23,15.80
2008,07,16,09,24,15.80
2008,07,16,09,25,15.90
2008,07,16,09,26,15.90
2008,07,16,09,27,15.90
2008,07,16,09,28,15.90
2008,07,16,09,29,15.80
2008,07,16,09,30,15.80
2008,07,16,09,31,15.80
2008,07,16,09,32,15.80
2008,07,16,09,33,15.80
2008,07,16,09,34,15.90
2008,07,16,09,35,15.90
2008,07,16,09,36,15.90
2008,07,16,09,37,16.00
2008,07,16,09,38,16.10
2008,07,16,09,39,16.20
2008,07,16,09,40,16.20
2008,07,16,09,41,16.30
2008,07,16,09,42,16.30
2008,07,16,09,43,16.30
2008,07,16,09,44,16.20
2008,07,16,09,45,16.20
2008,07,16,09,46,16.20
2008,07,16,09,47,16.20
2008,07,16,09,48,16.20
2008,07,16,09,49,16.20
2008,07,16,09,50,16.20
2008,07,16,09,51,16.20
2008,07,16,09,52,16.20
2008,07,16,09,53,16.30
2008,07,16,09,54,16.30
2008,07,16,09,55,16.40
2008,07,16,09,56,16.40
2008,07,16,09,57,16.60
2008,07,16,09,58,16.70
2008,07,16,09,59,16.70
2008,07,16,10,00,16.70
2008,07,16,10,01,16.70
2008,07,16,10,02,16.70
2008,07,16,10,03,16.80
2008,07,16,10,04,16.80
2008,07,16,10,05,16.80
2008,07,16,10,06,16.80
2008,07,16,10,07,16.90
2008,07,16,10,08,17.00
2008,07,16,10,09,17.00
2008,07,16,10,10,17.00
2008,07,16,10,11,17.00
2008,07,16,10,12,17.00
2008,07,16,10,13,17.00
2008,07,16,10,14,17.00
2008,07,16,10,15,17.00
2008,07,16,10,16,16.90
2008,07,16,10,17,16.90
2008,07,16,10,18,16.90
2008,07,16,10,19,17.00
2008,07,16,10,20,17.00
2008,07,16,10,21,17.20
2008,07,16,10,22,17.20
2008,07,16,10,23,17.30
2008,07,16,10,24,17.30
2008,07,16,10,25,17.30
2008,07,16,10,26,17.30
2008,07,16,10,27,17.30
2008,07,16,10,28,17.30
2008,07,16,10,29,17.30
2008,07,16,10,30,17.30
2008,07,16,10,31,17.40
2008,07,16,10,32,17.50
2008,07,16,10,33,17.60
2008,07,16,10,34,17.70
2008,07,16,10,35,17.70
2008,07,16,10,36,17.70
2008,07,16,10,37,17.70
2008,07,16,10,38,17.70
2008,07,16,10,39,17.70
2008,07,16,10,40,17.60
2008,07,16,10,41,17.50
2008,07,16,10,42,17.50
2008,07,16,10,43,17.60
2008,07,16,10,44,17.60
2008,07,16,10,45,17.60
2008,07,16,10,46,17.50
2008,07,16,10,47,17.50
2008,07,16,10,48,17.40
2008,07,16,10,49,17.50
2008,07,16,10,50,17.50
2008,07,16,10,51,17.50
2008,07,16,10,52,17.50
2008,07,16,10,53,17.50
2008,07,16,10,54,17.50
2008,07,16,10,55,17.40
2008,07,16,10,56,17.30
2008,07,16,10,57,17.30
2008,07,16,10,58,17.30
2008,07,16,10,59,17.30
2008,07,16,11,00,17.30
2008,07,16,11,01,17.40
2008,07,16,11,02,17.40
2008,07,16,11,03,17.40
2008,07,16,11,04,17.50
2008,07,16,11,05,17.70
2008,07,16,11,06,17.90
2008,07,16,11,07,18.00
2008,07,16,11,08,18.20
2008,07,16,11,09,18.30
2008,07,16,11,10,18.30
2008,07,16,11,11,18.40
2008,07,16,11,12,18.40
2008,07,16,11,13,18.40
2008,07,16,11,14,18.40
2008,07,16,11,15,18.50
2008,07,16,11,16,18.60
2008,07,16,11,17,18.70
2008,07,16,11,18,18.80
2008,07,16,11,19,18.90
2008,07,16,11,20,18.90
2008,07,16,11,21,19.00
2008,07,16,11,22,19.10
2008,07,16,11,23,19.10
2008,07,16,11,24,18.90
2008,07,16,11,25,18.90
2008,07,16,11,26,18.90
2008,07,16,11,27,18.90
2008,07,16,11,28,18.90
2008,07,16,11,29,18.90
2008,07,16,11,30,18.90
2008,07,16,11,31,18.90
2008,07,16,11,32,18.70
2008,07,16,11,33,18.70
2008,07,16,11,34,18.70
2008,07,16,11,35,18.70
2008,07,16,11,36,18.80
2008,07,16,11,37,18.90
2008,07,16,11,38,18.90
2008,07,16,11,39,18.90
2008,07,16,11,40,18.80
2008,07,16,11,41,18.80
2008,07,16,11,42,18.80
2008,07,16,11,43,18.90
2008,07,16,11,44,19.00
2008,07,16,11,45,19.10
2008,07,16,11,46,19.10
2008,07,16,11,47,19.10
2008,07,16,11,48,19.10
2008,07,16,11,49,19.00
2008,07,16,11,50,18.90
2008,07,16,11,51,18.90
2008,07,16,11,52,18.90
2008,07,16,11,53,18.90
2008,07,16,11,54,18.90
2008,07,16,11,55,18.90
2008,07,16,11,56,18.90
2008,07,16,11,57,18.90
2008,07,16,11,58,18.90
2008,07,16,11,59,19.00
2008,07,16,12,00,19.10
2008,07,16,12,01,18.90
2008,07,16,12,02,18.90
2008,07,16,12,03,18.80
2008,07,16,12,04,18.80
2008,07,16,12,05,18.90
2008,07,16,12,06,18.90
2008,07,16,12,07,19.00
2008,07,16,12,08,19.10
2008,07,16,12,09,18.90
2008,07,16,12,10,18.90
2008,07,16,12,11,18.80
2008,07,16,12,12,18.70
2008,07,16,12,13,18.60
2008,07,16,12,14,18.60
2008,07,16,12,15,18.80
2008,07,16,12,16,18.90
2008,07,16,12,17,18.90
2008,07,16,12,18,18.90
2008,07,16,12,19,18.90
2008,07,16,12,20,18.90
2008,07,16,12,21,18.90
2008,07,16,12,22,18.90
2008,07,16,12,23,18.80
2008,07,16,12,24,18.80
2008,07,16,12,25,18.60
2008,07,16,12,26,18.60
2008,07,16,12,27,18.60
2008,07,16,12,28,18.60
2008,07,16,12,29,18.60
2008,07,16,12,30,18.70
2008,07,16,12,31,18.80
2008,07,16,12,32,18.80
2008,07,16,12,33,18.80
2008,07,16,12,34,18.80
2008,07,16,12,35,18.90
2008,07,16,12,36,18.90
2008,07,16,12,37,18.90
2008,07,16,12,38,18.80
2008,07,16,12,39,18.80
2008,07,16,12,40,18.80
2008,07,16,12,41,18.90
2008,07,16,12,42,18.90
2008,07,16,12,43,18.90
2008,07,16,12,44,18.90
2008,07,16,12,45,18.90
2008,07,16,12,46,18.90
2008,07,16,12,47,18.90
2008,07,16,12,48,18.80
2008,07,16,12,49,18.70
2008,07,16,12,50,18.70
2008,07,16,12,51,18.70
2008,07,16,12,52,18.80
2008,07,16,12,53,18.80
2008,07,16,12,54,18.80
2008,07,16,12,55,18.80
2008,07,16,12,56,18.80
2008,07,16,12,57,18.90
2008,07,16,12,58,19.00
2008,07,16,12,59,19.10
2008,07,16,13,00,19.10
2008,07,16,13,01,19.30
2008,07,16,13,02,19.20
2008,07,16,13,03,19.20
2008,07,16,13,04,19.10
2008,07,16,13,05,19.00
2008,07,16,13,06,19.00
2008,07,16,13,07,19.10
2008,07,16,13,08,19.10
2008,07,16,13,09,19.10
2008,07,16,13,10,19.10
2008,07,16,13,11,19.10
2008,07,16,13,12,19.30
2008,07,16,13,13,19.40
2008,07,16,13,14,19.60
2008,07,16,13,15,19.60
2008,07,16,13,16,19.60
2008,07,16,13,17,19.70
2008,07,16,13,18,19.80
2008,07,16,13,19,19.80
2008,07,16,13,20,19.90
2008,07,16,13,21,19.90
2008,07,16,13,22,19.70
2008,07,16,13,23,19.60
2008,07,16,13,24,19.50
2008,07,16,13,25,19.50
2008,07,16,13,26,19.50
2008,07,16,13,27,19.60
2008,07,16,13,28,19.60
2008,07,16,13,29,19.70
2008,07,16,13,30,19.70
2008,07,16,13,31,19.70
2008,07,16,13,32,19.70
2008,07,16,13,33,19.70
2008,07,16,13,34,19.70
2008,07,16,13,35,19.80
2008,07,16,13,36,19.90
2008,07,16,13,37,20.10
2008,07,16,13,38,20.20
2008,07,16,13,39,20.20
2008,07,16,13,40,20.20
2008,07,16,13,41,20.20
2008,07,16,13,42,20.20
2008,07,16,13,43,20.30
2008,07,16,13,44,20.30
2008,07,16,13,45,20.40
2008,07,16,13,46,20.60
2008,07,16,13,47,20.70
2008,07,16,13,48,20.80
2008,07,16,13,49,20.90
2008,07,16,13,50,21.00
2008,07,16,13,51,20.90
2008,07,16,13,52,20.90
2008,07,16,13,53,20.80
2008,07,16,13,54,20.80
2008,07,16,13,55,20.70
2008,07,16,13,56,20.80
2008,07,16,13,57,20.80
2008,07,16,13,58,20.90
2008,07,16,13,59,20.90
2008,07,16,14,00,21.00
2008,07,16,14,01,21.00
2008,07,16,14,02,21.00
2008,07,16,14,03,21.00
2008,07,16,14,04,20.90
2008,07,16,14,05,20.80
2008,07,16,14,06,20.80
2008,07,16,14,07,20.80
2008,07,16,14,08,20.80
2008,07,16,14,09,20.80
2008,07,16,14,10,20.80
2008,07,16,14,11,20.80
2008,07,16,14,12,20.80
2008,07,16,14,13,20.80
2008,07,16,14,14,20.80
2008,07,16,14,15,20.90
2008,07,16,14,16,20.90
2008,07,16,14,17,20.90
2008,07,16,14,18,21.00
2008,07,16,14,19,21.00
2008,07,16,14,20,21.00
2008,07,16,14,21,21.00
2008,07,16,14,22,21.10
2008,07,16,14,23,21.10
2008,07,16,14,24,21.00
2008,07,16,14,25,21.00
2008,07,16,14,26,21.00
2008,07,16,14,27,21.00
2008,07,16,14,28,21.10
2008,07,16,14,29,21.10
2008,07,16,14,30,21.10
2008,07,16,14,31,21.20
2008,07,16,14,32,21.20
2008,07,16,14,33,21.30
2008,07,16,14,34,21.40
2008,07,16,14,35,21.50
2008,07,16,14,36,21.60
2008,07,16,14,37,21.80
2008,07,16,14,38,21.80
2008,07,16,14,39,21.80
2008,07,16,14,40,21.70
2008,07,16,14,41,21.60
2008,07,16,14,42,21.50
2008,07,16,14,43,21.40
2008,07,16,14,44,21.30
2008,07,16,14,45,21.30
2008,07,16,14,46,21.20
2008,07,16,14,47,21.20
2008,07,16,14,48,21.20
2008,07,16,14,49,21.20
2008,07,16,14,50,21.10
2008,07,16,14,51,21.00
2008,07,16,14,52,21.00
2008,07,16,14,53,21.10
2008,07,16,14,54,21.10
2008,07,16,14,55,21.10
2008,07,16,14,56,21.10
2008,07,16,14,57,21.10
2008,07,16,14,58,21.10
2008,07,16,14,59,21.20
2008,07,16,15,00,21.20
2008,07,16,15,01,21.20
2008,07,16,15,02,21.20
2008,07,16,15,03,21.20
2008,07,16,15,04,21.20
2008,07,16,15,05,21.20
2008,07,16,15,06,21.30
2008,07,16,15,07,21.30
2008,07,16,15,08,21.30
2008,07,16,15,09,21.30
2008,07,16,15,10,21.40
2008,07,16,15,11,21.60
2008,07,16,15,12,21.60
2008,07,16,15,13,21.70
2008,07,16,15,14,21.70
2008,07,16,15,15,21.70
2008,07,16,15,16,21.80
2008,07,16,15,17,21.80
2008,07,16,15,18,21.80
2008,07,16,15,19,21.80
2008,07,16,15,20,21.90
2008,07,16,15,21,22.00
2008,07,16,15,22,22.00
2008,07,16,15,23,22.10
2008,07,16,15,24,22.20
2008,07,16,15,25,22.20
2008,07,16,15,26,22.30
2008,07,16,15,27,22.30
2008,07,16,15,28,22.30
2008,07,16,15,29,22.40
2008,07,16,15,30,22.40
2008,07,16,15,31,22.30
2008,07,16,15,32,22.30
2008,07,16,15,33,22.20
2008,07,16,15,34,22.00
2008,07,16,15,35,22.00
2008,07,16,15,36,21.90
2008,07,16,15,37,21.90
2008,07,16,15,38,22.00
2008,07,16,15,39,22.10
2008,07,16,15,40,22.20
2008,07,16,15,41,22.30
2008,07,16,15,42,22.30
2008,07,16,15,43,22.30
2008,07,16,15,44,22.30
2008,07,16,15,45,22.40
2008,07,16,15,46,22.40
2008,07,16,15,47,22.50
2008,07,16,15,48,22.60
2008,07,16,15,49,22.60
2008,07,16,15,50,22.70
2008,07,16,15,51,22.80
2008,07,16,15,52,22.80
2008,07,16,15,53,22.70
2008,07,16,15,54,22.70
2008,07,16,15,55,22.70
2008,07,16,15,56,22.60
2008,07,16,15,57,22.60
2008,07,16,15,58,22.60
2008,07,16,15,59,22.60
2008,07,16,16,00,22.60
2008,07,16,16,01,22.60
2008,07,16,16,02,22.70
2008,07,16,16,03,22.60
2008,07,16,16,04,22.60
2008,07,16,16,05,22.60
2008,07,16,16,06,22.60
2008,07,16,16,07,22.70
2008,07,16,16,08,22.70
2008,07,16,16,09,22.70
2008,07,16,16,10,22.70
2008,07,16,16,11,22.70
2008,07,16,16,12,22.60
2008,07,16,16,13,22.60
2008,07,16,16,14,22.60
2008,07,16,16,15,22.60
2008,07,16,16,16,22.60
2008,07,16,16,17,22.60
2008,07,16,16,18,22.60
2008,07,16,16,19,22.60
2008,07,16,16,20,22.60
2008,07,16,16,21,22.60
2008,07,16,16,22,22.60
2008,07,16,16,23,22.50
2008,07,16,16,24,22.60
2008,07,16,16,25,22.60
2008,07,16,16,26,22.70
2008,07,16,16,27,22.70
2008,07,16,16,28,22.80
2008,07,16,16,29,22.80
2008,07,16,16,30,22.80
2008,07,16,16,31,22.80
2008,07,16,16,32,22.70
2008,07,16,16,33,22.60
2008,07,16,16,34,22.60
2008,07,16,16,35,22.50
2008,07,16,16,36,22.40
2008,07,16,16,37,22.40
2008,07,16,16,38,22.40
2008,07,16,16,39,22.40
2008,07,16,16,40,22.30
2008,07,16,16,41,22.40
2008,07,16,16,42,22.50
2008,07,16,16,43,22.50
2008,07,16,16,44,22.50
2008,07,16,16,45,22.50
2008,07,16,16,46,22.50
2008,07,16,16,47,22.50
2008,07,16,16,48,22.50
2008,07,16,16,49,22.50
2008,07,16,16,50,22.50
2008,07,16,16,51,22.60
2008,07,16,16,52,22.60
2008,07,16,16,53,22.50
2008,07,16,16,54,22.50
2008,07,16,16,55,22.60
2008,07,16,16,56,22.60
2008,07,16,16,57,22.60
2008,07,16,16,58,22.50
2008,07,16,16,59,22.50
2008,07,16,17,00,22.50
2008,07,16,17,01,22.40
2008,07,16,17,02,22.50
2008,07,16,17,03,22.40
2008,07,16,17,04,22.30
2008,07,16,17,05,22.30
2008,07,16,17,06,22.20
2008,07,16,17,07,22.20
2008,07,16,17,08,22.10
2008,07,16,17,09,22.00
2008,07,16,17,10,21.90
2008,07,16,17,11,21.90
2008,07,16,17,12,21.90
2008,07,16,17,13,21.80
2008,07,16,17,14,21.80
2008,07,16,17,15,21.80
2008,07,16,17,16,21.80
2008,07,16,17,17,21.90
2008,07,16,17,18,21.90
2008,07,16,17,19,21.80